[[{"header":{"parameterUnit":"m.s-1","parameterCategory":1,"la1":30.2991,"la2":30.254,"lo1":-89.0895,"lo2":-89.0444,"dy":0.0017,"dx":0.0017,"nx":28,"ny":28,"refTime":"2024-08-05T21:00:00:Z","depth":0,"parameterNumber":2,"parameterNumberName":"U-component_of_WINDS"},"data":[0,0,0,0,0,0,0,0,0,0,0,0,0,0,0,0,0,0,0,0,0,0,0,0,0,0,0,0,0,0,0,0,0,0,0,0,0,0,0,0,0,0,0,0,0,0,0,0,0,0,0,0,0,0,0,0,0,0,1.9374,1.9376,0,1.9554,1.9556,1.9558,1.9555,1.9553,1.955,1.9548,1.9737,1.9744,1.9752,0,0,0,0,0,0,0,0,0,0,0,0,0,1.9032,1.9038,1.9374,1.9376,1.9378,1.9554,1.9556,1.9559,1.9556,1.9553,1.955,1.9547,1.9735,1.9744,1.9752,0,0,0,0,0,0,0,0,0,0,0,0,0,1.9193,1.904,1.9373,1.9398,1.9402,1.9553,1.9556,1.9559,1.9556,1.9553,1.9549,1.9545,1.9732,1.9743,1.9754,1.9894,0,0,1.9787,1.9792,0,0,0,0,0,0,0,0,1.9184,1.9206,1.9392,1.9396,1.9401,1.9528,1.9505,1.9672,1.9557,1.9498,1.9548,1.9544,1.9671,1.9687,1.9729,1.9903,1.9911,1.9788,1.9795,1.9799,1.9802,0,0,0,0,0,0,0,1.9173,1.9198,1.9445,1.9395,1.94,1.9401,1.942,1.9537,1.9603,1.9503,1.9503,1.9524,1.9673,1.9718,1.9733,1.9914,1.9788,1.9797,1.9804,1.9808,2.0214,2.0218,0,0,0,0,0,0,1.9156,1.9189,1.9439,1.9451,1.9281,1.941,1.9431,1.9491,1.9601,1.9615,1.9527,1.9523,1.9701,1.972,1.974,1.9913,1.9799,1.981,1.9816,2.021,2.0215,2.022,0,0,0,0,0,0,1.9148,1.9178,1.9432,1.932,1.9352,1.942,1.9487,1.9497,1.9542,1.962,1.9632,1.9561,1.9699,1.9724,1.9856,1.9919,1.9814,1.9824,2.0205,2.0212,2.0218,2.0259,0,0,0,0,0,0,1.9139,1.9176,1.9229,1.9321,1.9358,1.9544,1.9491,1.9503,1.956,1.9557,1.9655,1.9667,1.9698,1.9839,1.9867,1.9933,1.9833,2.02,2.0208,2.0216,2.0252,2.0266,2.0278,0,0,0,0,0,1.9126,1.9234,1.9231,1.9262,1.9425,1.9547,1.9569,1.9601,1.9565,1.962,1.967,1.9664,1.9908,1.9853,1.9884,1.9954,2.0196,2.0206,2.0215,2.0247,2.0263,2.0277,0,0,0,0,0,0,1.9149,1.9246,1.9245,1.9385,1.9458,1.9547,1.9616,1.9617,1.9703,1.9697,1.9734,1.9756,1.9888,1.9934,1.9871,2.0096,2.0048,2.0064,2.0061,2.0078,2.009,2.0077,1.9842,0,0,0,0,0,1.917,1.9259,1.934,1.9456,1.9492,1.9548,1.9602,1.9621,1.9698,1.973,1.9789,1.9866,1.996,2.0021,2.0112,2.0259,2.0281,2.0322,2.0335,2.0345,2.0359,2.0441,2.0461,2.0251,2.0251,2.0251,0,0,1.9214,1.9279,1.9333,1.9462,1.9521,1.9614,1.9574,1.9674,1.9745,1.9745,1.9873,1.992,2.0008,2.0148,2.0213,2.0191,2.0422,2.0357,2.0364,2.0373,2.0453,2.0473,2.049,2.0257,2.0256,2.0255,0,0,1.9344,1.9401,1.9504,1.9563,1.9652,1.9688,1.9713,1.9802,1.9833,1.9961,1.9964,2.0049,2.0209,2.0273,2.0326,2.048,2.0478,2.0508,2.0575,2.0655,2.0672,2.0686,2.0743,2.0762,2.0522,2.0522,2.0522,0,1.9389,1.9528,1.9557,1.9658,1.9716,1.9719,1.9825,1.9881,1.9996,2.0036,2.0009,2.0212,2.0271,2.0427,2.0464,2.0507,2.0538,2.0498,2.0666,2.0682,2.0696,2.075,2.0771,2.0525,2.0524,2.0524,2.0524,0,1.9579,1.9676,1.9749,1.9858,1.9923,2.0026,2.0073,2.0136,2.0149,2.0188,2.032,2.0392,2.0497,2.0535,2.0549,2.0694,2.0677,2.0658,2.061,2.0719,2.077,2.0791,2.0529,2.0528,2.0527,2.0527,0,0,1.9728,1.9852,1.9878,1.9928,2.0027,2.0103,2.0206,2.0308,2.0362,2.0441,2.0531,2.0666,2.0649,2.071,2.0731,2.0801,2.092,2.0774,2.0776,2.0799,2.1085,2.11,2.1123,2.0919,2.0923,2.0926,2.1078,0,1.9869,2.0051,2.0081,2.0242,2.0332,2.0337,2.0428,2.0499,2.0539,2.0623,2.0668,2.0764,2.0733,2.077,2.0839,2.089,2.0978,2.088,2.1004,2.1008,2.0983,2.115,2.1166,2.1306,2.1099,2.1102,2.1104,0,2.0057,2.014,2.0309,2.0396,2.0435,2.0515,2.0612,2.0691,2.0773,2.0797,2.0865,2.0878,2.0987,2.0934,2.1087,2.1019,2.1072,2.1105,2.1111,2.1125,2.1064,2.117,2.1351,2.1372,2.1136,2.1134,2.1131,0,2.015,2.0304,2.0425,2.0468,2.0571,2.0628,2.0675,2.0752,2.0812,2.0897,2.0936,2.1033,2.1087,2.1162,2.1202,2.1159,2.1353,2.1302,2.1378,2.1377,2.1419,2.1416,2.1613,2.1451,2.1451,2.145,2.145,0,2.0305,2.0409,2.0468,2.0543,2.066,2.0694,2.081,2.0855,2.0924,2.1009,2.102,2.11,2.1146,2.1234,2.1266,2.1388,2.1412,2.1437,2.1444,2.1436,2.1433,2.1472,2.1464,2.1456,2.1455,2.1454,2.1453,0,2.0429,2.0473,2.0606,2.0693,2.0717,2.08,2.0875,2.0949,2.0989,2.1096,2.1124,2.1187,2.129,2.1337,2.1465,2.1486,2.1627,2.1627,2.1599,2.1602,2.1676,2.1669,2.1905,2.1939,2.1753,2.1755,2.1757,0,2.0525,2.0605,2.07,2.0757,2.0804,2.0896,2.0957,2.0994,2.1057,2.1156,2.1218,2.1322,2.1407,2.1572,2.1631,2.173,2.1733,2.1809,2.1748,2.1738,2.1736,2.1731,2.174,2.182,2.1822,2.1824,2.1825,0,2.0691,2.0709,2.0795,2.0889,2.0961,2.1037,2.1112,2.1159,2.1208,2.1279,2.1384,2.145,2.158,2.1684,2.1786,2.1836,2.184,2.1843,2.1866,2.186,2.1841,2.1854,2.1631,2.1838,2.1837,2.1836,2.1835,2.1835,2.0805,2.0877,2.0955,2.1051,2.1111,2.1181,2.1255,2.1303,2.1391,2.1499,2.1516,2.1628,2.171,2.1847,2.1901,2.1991,2.1973,2.2006,2.2014,2.2022,2.2027,2.1826,2.201,2.2009,2.2009,2.2009,2.2008,0,2.0973,2.1024,2.1111,2.1215,2.1291,2.1286,2.1369,2.1433,2.1532,2.1606,2.1689,2.1811,2.1911,2.1977,2.208,2.2139,2.2144,2.2165,2.2162,2.2173,2.2037,2.2007,2.216,2.216,2.216,2.216,2.216,2.216,2.1069,2.119,2.1218,2.1369,2.1419,2.1528,2.1576,2.1642,2.1701,2.1836,2.1919,2.1961,2.2033,2.214,2.2233,2.225,2.2288,2.2311,2.2327,2.2199,2.2183,2.2168,2.214,2.2318,2.2318,2.2456,2.2458,2.2459]},{"header":{"parameterUnit":"m.s-1","parameterCategory":1,"la1":30.2991,"la2":30.254,"lo1":-89.0895,"lo2":-89.0444,"dy":0.0017,"dx":0.0017,"nx":28,"ny":28,"refTime":"2024-08-05T21:00:00:Z","depth":0,"parameterNumber":3,"parameterNumberName":"V-component_of_WINDS"},"data":[0,0,0,0,0,0,0,0,0,0,0,0,0,0,0,0,0,0,0,0,0,0,0,0,0,0,0,0,0,0,0,0,0,0,0,0,0,0,0,0,0,0,0,0,0,0,0,0,0,0,0,0,0,0,0,0,0,0,0.4465,0.4464,0,0.4422,0.4422,0.4421,0.4351,0.435,0.4349,0.4347,0.4305,0.4305,0.4305,0,0,0,0,0,0,0,0,0,0,0,0,0,0.4486,0.4486,0.4465,0.4464,0.4464,0.4422,0.4422,0.4421,0.4351,0.435,0.4348,0.4347,0.4305,0.4305,0.4305,0,0,0,0,0,0,0,0,0,0,0,0,0,0.4463,0.4486,0.4465,0.4424,0.442,0.4422,0.4422,0.4421,0.4352,0.435,0.4348,0.4346,0.4305,0.4305,0.4305,0.4344,0,0,0.4305,0.4305,0,0,0,0,0,0,0,0,0.4465,0.4463,0.443,0.4427,0.4422,0.439,0.4413,0.4395,0.4352,0.4378,0.4347,0.4345,0.4335,0.4332,0.4329,0.4342,0.4341,0.4305,0.4305,0.4306,0.4306,0,0,0,0,0,0,0,0.4466,0.4464,0.4448,0.443,0.4425,0.4408,0.4402,0.441,0.4368,0.4375,0.437,0.4366,0.4332,0.4329,0.4327,0.434,0.4305,0.4305,0.4306,0.4306,0.4383,0.4385,0,0,0,0,0,0,0.4474,0.4466,0.4449,0.4446,0.4439,0.4409,0.4403,0.4402,0.4367,0.436,0.4368,0.4363,0.433,0.4327,0.4325,0.4369,0.4306,0.4306,0.4306,0.4381,0.4383,0.4385,0,0,0,0,0,0,0.4474,0.4473,0.4451,0.4455,0.4451,0.4411,0.441,0.4402,0.4399,0.4362,0.4354,0.4372,0.4328,0.4325,0.434,0.4366,0.4306,0.4306,0.4379,0.4382,0.4384,0.4456,0,0,0,0,0,0,0.4475,0.4474,0.4488,0.4455,0.4451,0.4466,0.4412,0.4403,0.4399,0.4392,0.4363,0.4357,0.4326,0.434,0.434,0.4365,0.4306,0.4376,0.438,0.4383,0.4451,0.4461,0.447,0,0,0,0,0,0.4476,0.451,0.4489,0.4488,0.4468,0.4468,0.4465,0.4429,0.4402,0.4416,0.4392,0.4358,0.4363,0.4342,0.4342,0.4367,0.4374,0.4379,0.4383,0.4447,0.4459,0.4469,0,0,0,0,0,0,0.4548,0.4505,0.4482,0.4506,0.4491,0.4456,0.4473,0.4443,0.4436,0.443,0.4386,0.438,0.44,0.4385,0.4362,0.4403,0.4363,0.4368,0.4412,0.4423,0.4432,0.4436,0.4306,0,0,0,0,0,0.4566,0.457,0.4532,0.4558,0.4551,0.4514,0.4512,0.4486,0.4469,0.4462,0.4439,0.4424,0.4422,0.4422,0.4418,0.4448,0.4441,0.4465,0.4475,0.4482,0.4487,0.4501,0.4512,0.44,0.44,0.44,0,0,0.4605,0.4582,0.4587,0.4571,0.4557,0.4561,0.4509,0.4516,0.4519,0.4463,0.4475,0.4458,0.4438,0.4461,0.4469,0.4449,0.4516,0.4488,0.4495,0.4495,0.4507,0.4518,0.4527,0.4403,0.4403,0.4402,0,0,0.4677,0.466,0.4679,0.4665,0.4643,0.4618,0.4623,0.4592,0.4578,0.459,0.4548,0.455,0.4548,0.4536,0.4529,0.4595,0.4564,0.4596,0.4644,0.4658,0.4667,0.4675,0.4698,0.4707,0.46,0.46,0.46,0,0.4728,0.4733,0.4693,0.4702,0.4697,0.4646,0.4664,0.4653,0.4631,0.4628,0.4605,0.4601,0.4584,0.4603,0.4619,0.4615,0.4619,0.4599,0.4669,0.4676,0.4683,0.4704,0.4713,0.4604,0.4604,0.4603,0.4603,0,0.4796,0.48,0.4818,0.4798,0.4794,0.4808,0.477,0.4771,0.4745,0.4722,0.4734,0.4711,0.4702,0.4704,0.4679,0.4719,0.4707,0.4677,0.4636,0.4698,0.4718,0.4726,0.461,0.4609,0.4607,0.4606,0,0,0.4913,0.487,0.4877,0.4867,0.4839,0.4841,0.4852,0.4843,0.4844,0.4831,0.4839,0.4838,0.481,0.4803,0.4775,0.4788,0.4841,0.4756,0.4755,0.4773,0.4884,0.4907,0.4917,0.482,0.4821,0.4823,0.4885,0,0.4979,0.4997,0.4961,0.4987,0.499,0.4941,0.4951,0.4935,0.4913,0.4913,0.4889,0.4889,0.4852,0.4847,0.4857,0.4833,0.4863,0.4828,0.4827,0.4828,0.4834,0.4927,0.4951,0.5012,0.4893,0.4894,0.4895,0,0.5059,0.5049,0.5076,0.5045,0.5045,0.5055,0.5042,0.5043,0.5023,0.5006,0.4998,0.4965,0.4974,0.4935,0.4946,0.4923,0.492,0.4908,0.491,0.4908,0.4866,0.4929,0.503,0.504,0.4907,0.4906,0.4905,0,0.5142,0.5135,0.5149,0.5142,0.5107,0.5115,0.5101,0.5079,0.5075,0.5065,0.5062,0.5052,0.5048,0.5041,0.5006,0.4981,0.5022,0.498,0.5008,0.5009,0.502,0.5019,0.5123,0.5018,0.5018,0.5018,0.5018,0,0.522,0.5238,0.5186,0.5195,0.5213,0.5172,0.5191,0.5172,0.5153,0.5157,0.5114,0.5119,0.5073,0.5073,0.5046,0.506,0.5058,0.5045,0.5037,0.5049,0.505,0.5047,0.5042,0.502,0.502,0.5019,0.5019,0,0.5315,0.5281,0.5294,0.5259,0.5251,0.5266,0.5236,0.5243,0.5219,0.5225,0.5224,0.5185,0.5183,0.5148,0.5138,0.5119,0.5144,0.5128,0.515,0.5145,0.5176,0.5174,0.528,0.5292,0.518,0.5181,0.5182,0,0.5367,0.538,0.5346,0.5346,0.5334,0.5334,0.533,0.5289,0.5286,0.5264,0.5274,0.5268,0.5261,0.5259,0.523,0.5222,0.5206,0.5244,0.5205,0.5215,0.5207,0.5206,0.5207,0.5253,0.5254,0.5255,0.5256,0,0.5463,0.5445,0.5441,0.5431,0.5427,0.5417,0.5404,0.5406,0.5361,0.536,0.5357,0.5352,0.5341,0.5335,0.5322,0.5307,0.5274,0.5269,0.5275,0.5287,0.5299,0.5293,0.5173,0.5267,0.5266,0.5265,0.5264,0.5264,0.5538,0.5547,0.5525,0.5521,0.5507,0.5496,0.55,0.5476,0.5473,0.5461,0.5437,0.5437,0.5416,0.5395,0.5383,0.5382,0.5363,0.5372,0.5374,0.5377,0.5383,0.5299,0.5379,0.5379,0.5379,0.5379,0.5378,0,0.5632,0.5615,0.5612,0.5595,0.5592,0.5561,0.5545,0.5545,0.5546,0.5529,0.5523,0.5519,0.5513,0.5483,0.5474,0.548,0.5464,0.5479,0.5478,0.5475,0.5401,0.5397,0.5491,0.5491,0.5491,0.5491,0.5491,0.5491,0.568,0.5693,0.5673,0.5679,0.5661,0.5661,0.5655,0.5644,0.5631,0.5628,0.5623,0.5604,0.5581,0.557,0.5563,0.5555,0.5553,0.5573,0.5559,0.5491,0.548,0.547,0.5465,0.5573,0.5573,0.5633,0.5634,0.5634]}]]